Simultaneous Nadir Overpasses (SNOs) Predictions

Prediction of SNOs between TERRA and METOP-C Satellite Orbit:

Table of predicted SNOs for the next 14.0 days since TLE Epoch: 5/13/2023
Index Date (TERRA) Time (TERRA) Lat,Lon (TERRA) SZA (TERRA ) Date (METOP-C) Time (METOP-C) Lat,Lon (METOP-C) SZA (METOP-C ) Distance(km) Time Diff (sec)
1 05/13/2023 07:09:54 80.84, 105.59 64.11 05/13/2023 07:09:22 80.84, 105.75 64.12 2.89 32
2 05/13/2023 07:59:15 -80.87, -86.43 115.85 05/13/2023 08:00:01 -80.86, -86.61 115.85 3.21 46
3 05/15/2023 22:31:29 -80.80, 54.71 116.61 05/15/2023 22:30:20 -80.80, 54.77 116.62 1.13 69
4 05/15/2023 23:20:49 80.87,-136.79 63.53 05/15/2023 23:20:58 80.87,-136.66 63.55 2.45 9
5 05/18/2023 14:42:23 -80.81, 172.13 117.18 05/18/2023 14:41:56 -80.81, 171.98 117.21 2.70 27
6 05/18/2023 15:31:43 80.88, -19.41 62.94 05/18/2023 15:32:34 80.87, -19.49 62.95 1.69 51
7 05/21/2023 06:03:56 80.80, 121.58 62.24 05/21/2023 06:02:53 80.81, 121.69 62.23 1.84 63
8 05/21/2023 06:53:16 -80.87, -70.00 117.65 05/21/2023 06:53:30 -80.87, -69.82 117.63 3.18 14
9 05/23/2023 22:14:50 80.80,-121.15 61.71 05/23/2023 22:14:30 80.80,-121.31 61.69 2.76 20
10 05/23/2023 23:04:10 -80.87, 47.30 118.17 05/23/2023 23:05:07 -80.87, 47.24 118.16 1.05 57
11 05/26/2023 13:36:22 -80.79,-171.78 118.81 05/26/2023 13:35:26 -80.79,-171.66 118.82 2.20 56



Historial Predications of SNOs between TERRA and METOP-C
